Location: Tel Aviv
(32.0670°N, 34.7670°E)
Time: 02:54:19
(UTC+03:00)

A-11 Canister half - Pass Details

Date: 15 December 2023
Orbit: 1524 x 1684 km, 47.3° (Epoch: 23 June)

Event Time Altitude Azimuth Distance (km) Brightness Sun altitude
Rises 18:36:15 0° 287° (WNW) 4,927 12.6 -24.3°
Reaches altitude 10° 18:39:56 10° 296° (WNW) 3,946 11.8 -25.1°
Maximum altitude 18:48:51 33° 358° (N) 2,546 10.0 -26.9°
Enters shadow 18:51:53 29° 28° (NNE) 2,741 9.9 -27.6°
